EGJBEGTE

Guest
Details From EGJB - Guernsey
To EGTE - Exeter
Flight Number -
Tags generated
Created
Modified
Stats Distance 84 nm / 156 km
Max Altitude 0 ft / 0 m
Waypoints 3
Social Downloads 3
Likes 0
Share VATSIM

Download

Looking for another format? Having issues loading an existing format? Contact us
Advertisement - Login to hide

Notes

Basic altitude profile: - Ascent Rate: 2500ft/min - Ascent Speed: 250kts - Cruise Altitude: 35000ft - Cruise Speed: 420kts - Descent Rate: 1500ft/min - Descent Speed: 250kts

Route

EGJB LAGUL EGTE

ID Type Via Altitude Latitude Longitude Leg Dist Tot Dist Heading (true) Name
O EGJB APT - 0 ft / 0 m 49.43495˚ -2.60197˚ - 0 nm - Guernsey
LAGUL FIX - 0 ft / 0 m 49.43722˚ -2.60361˚ 0 nm 0 nm 335° / 335° -
O EGTE APT - 0 ft / 0 m 50.73426˚ -3.41400˚ 83 nm 84 nm 338° / 338° Exeter

Altitude Profile

Advertisement - Login to hide

EGJB

Details ICAO EGJB (GCI)
Name Guernsey
Region United Kingdom
Timezone Europe/Guernsey (UTC+1.0)
Stats Elevation 336 ft / 102 m (AMSL)
Location 49.434955° -2.601970°
Runways 1
Magnetic Variation 1.005° W

METAR

EGJB 221750Z 34009KT CAVOK 16/11 Q1017

Decode

TAF

Not found

Departure Runways

ID Width Length Bearing (true) Bearing (mag) Surface Threshold Offset Overrun Length
09 148 ft / 45 m 4,753 ft / 1,449 m 87.56° 88.56° Asphalt 0 ft / 0 m 0 ft / 0 m
27 148 ft / 45 m 4,753 ft / 1,449 m 267.57° 268.57° Asphalt 0 ft / 0 m 272 ft / 83 m

EGTE

Details ICAO EGTE (EXT)
Name Exeter
Region United Kingdom
Timezone Europe/London (UTC+1.0)
Stats Elevation 102 ft / 31 m (AMSL)
Location 50.734260° -3.414000°
Runways 1
Magnetic Variation 1.449° W

METAR

EGTE 221750Z 36008KT 330V030 CAVOK 21/09 Q1018

Decode

TAF

Not found

Destination Runways

ID Width Length Bearing (true) Bearing (mag) Surface Threshold Offset Overrun Length
08 151 ft / 46 m 6,666 ft / 2,032 m 76.09° 77.54° Asphalt 0 ft / 0 m 0 ft / 0 m
26 151 ft / 46 m 6,666 ft / 2,032 m 256.11° 257.56° Asphalt 0 ft / 0 m 0 ft / 0 m

Approach Navaids

Runway Type Ident Frequency Range Bearing (true) Bearing (mag) Slope Elevation
08 Localiser IET 109.90 MHz 18 nm / 33 km 76.11° 77.56° - 102 ft / 31 m (AMSL)
08 Glidescope IET 109.90 MHz 10 nm / 19 km 76.10° 77.55° 3.00° 50 ft / 15 m (AMSL)
08 DME IET 109.90 MHz 18 nm / 33 km - - - 102 ft / 31 m (AMSL)
26 Localiser IXR 109.90 MHz 18 nm / 33 km 256.10° 257.55° - 102 ft / 31 m (AMSL)
26 Glidescope IXR 109.90 MHz 10 nm / 19 km 256.10° 257.55° 3.50° 58 ft / 18 m (AMSL)
26 DME IXR 109.90 MHz 18 nm / 33 km - - - 102 ft / 31 m (AMSL)

Popular Alternatives